EGBB

Birmingham International Airport

Airport
ICAO code
EGBB
IATA Code
BHX
Summary
ICAO Region
EUR
ICAO Territory
Location

Elmdon, England

Serving
Birmingham
Elevation
328 ft
Coordinates
52° 27' 13" N , 1° 44' 51" W
KCC
Metar
EGBB 300720Z 30012KT 9999 BKN017 13/09 Q1009

Description

International airport serving Birmingham and the West Midlands conurbation.

Climatology

Temperate Marine climate/Oceanic climate (Köppen climate classification Cfb). Moderately cool summer and comparatively warm winter with a temperature range of only 14°C. Prevailing south-westerly winds from the Atlantic Ocean.

Runways

Designator Length Width Surface Rops
6/24 1315 30 ASP Yes/Yes
15/33 2605 46 ASP Yes/Yes

SKYbrary Partners:

Safety knowledge contributed by: